Wetbulb
74.69 76.32 78.40 78.61 78.73 78.73 78.68 77.90 77.69 77.14 76.76 76.86 76.64 76.61 76.86 76.93 77.19 77.47 77.49 77.44 76.58 76.64 76.99 76.43 75.62 75.00 74.71 74.05 74.26 75.21 75.60 75.48 74.84 74.40 74.44 73.42 73.42 73.46 73.74 73.68 74.13 71.29 73.03
75.82 76.44 77.95 78.27 78.53 78.78 78.94 78.13 77.74 77.04 76.91 76.99 76.79 76.84 76.93 77.06 77.31 77.54 77.67 77.32 76.47 75.97 75.92 76.27 75.40 74.37 74.27 73.91 74.00 74.44 74.48 74.32 74.10 73.73 73.53 73.45 72.89 73.64 73.77 72.81 72.62 71.89 72.64
75.53 76.54 76.71 78.07 78.63 78.68 78.55 78.07 77.39 76.84 76.96 76.96 76.96 76.88 76.96 77.16 77.11 77.46 77.64 77.34 76.57 75.10 74.69 74.52 74.20 74.05 73.94 73.56 73.79 73.80 73.49 73.07 73.43 74.14 73.77 73.54 72.04 73.28 73.30 72.79 72.48 72.08 71.97
75.93 76.36 76.18 77.91 78.27 78.45 78.22 77.69 77.21 77.06 77.08 77.16 76.96 77.08 77.21 77.21 76.91 77.06 77.29 76.84 75.59 74.38 73.35 73.55 73.90 73.73 73.78 73.75 73.68 73.57 73.36 73.72 74.91 75.76 73.77 74.40 73.11 73.52 73.27 72.78 72.30 71.61 71.20
75.89 76.67 76.95 77.81 77.91 78.21 78.12 77.54 77.18 77.06 77.18 77.18 77.13 77.16 77.13 77.21 76.86 76.84 76.59 76.02 74.91 74.02 73.05 73.27 73.62 73.82 73.38 73.20 73.49 72.98 73.27 73.85 74.90 73.67 72.26 69.59 71.40 73.45 73.66 73.12 72.95 72.04 71.20
75.02 76.64 76.84 77.48 77.60 78.09 78.14 77.69 77.48 77.41 77.28 77.11 77.24 77.11 77.06 76.91 76.70 76.58 76.11 75.72 74.95 74.04 73.22 73.39 73.92 74.10 73.68 73.11 72.59 72.39 72.72 73.21 73.71 70.13 70.87 70.13 72.26 74.45 74.31 73.35 73.02 72.79 71.87
74.94 76.44 76.01 77.20 77.55 77.76 77.89 77.76 77.43 77.28 77.00 77.06 77.13 77.04 76.86 76.51 76.33 76.13 75.86 75.68 74.94 74.10 73.52 73.59 73.79 74.22 74.20 73.96 73.13 73.25 73.00 72.59 70.16 68.04 68.24 69.11 72.61 74.57 74.58 73.90 73.38 73.26 72.90
76.41 75.35 75.23 76.84 77.12 77.22 77.45 77.32 77.25 76.97 76.92 76.95 76.85 76.66 76.63 76.38 76.18 76.01 75.76 75.60 75.18 74.49 74.24 73.92 73.92 74.11 74.18 74.05 73.85 73.32 72.97 71.98 69.49 66.79 67.15 66.23 72.16 73.55 74.32 74.48 74.67 74.43 73.83
76.30 74.86 74.78 74.57 76.14 77.20 76.99 76.88 76.75 76.73 76.60 76.59 76.34 76.24 76.25 76.20 76.03 75.86 75.51 75.21 74.77 74.44 74.21 73.85 73.74 73.57 73.26 73.11 72.93 72.66 71.98 71.27 66.68 64.38 65.63 67.58 71.59 71.81 73.37 74.17 74.48 75.01 74.88
75.01 74.28 73.62 74.08 74.07 74.62 75.47 76.56 76.53 76.38 76.35 76.23 76.14 76.06 75.92 75.90 75.75 75.58 74.97 74.86 74.58 74.33 74.10 73.65 73.35 72.85 72.44 72.04 71.92 71.52 71.43 71.22 66.54 64.78 65.68 67.62 70.88 71.61 71.31 71.63 73.18 74.58 75.26
74.45 74.00 73.63 72.53 72.95 72.74 73.36 74.90 75.75 75.66 75.67 75.87 75.50 75.92 74.66 73.16 73.55 73.37 73.60 74.43 74.73 74.33 73.91 73.48 73.26 72.84 72.49 72.17 71.77 71.70 71.80 66.63 65.29 66.15 67.61 71.73 71.94 71.55 71.17 71.89 72.52 73.45 74.93
73.17 73.28 73.44 72.97 72.84 72.61 72.26 74.07 73.49 73.30 73.30 73.32 72.94 74.07 72.79 71.91 72.81 72.15 73.71 74.84 74.71 74.56 74.03 73.76 73.54 73.21 72.47 67.89 67.74 71.59 68.43 66.58 65.57 66.71 67.08 72.91 72.59 72.48 72.37 72.94 73.26 73.37 74.66
73.12 73.66 73.24 74.05 74.02 73.08 72.74 73.23 72.53 72.89 72.83 72.84 73.06 73.50 72.69 72.14 72.74 72.48 73.68 72.50 72.71 73.49 71.13 71.73 71.23 70.60 68.01 67.67 67.62 68.03 67.86 68.38 67.32 66.40 70.88 73.00 72.71 73.21 73.64 74.11 74.08 74.18 74.18
72.68 73.39 73.83 75.30 75.08 75.70 74.63 74.62 72.81 73.01 72.92 72.75 72.78 74.54 73.32 72.38 73.86 73.78 71.80 72.20 72.11 71.39 70.17 70.47 69.91 70.14 69.03 69.38 70.54 69.54 68.53 68.10 66.85 66.78 70.58 73.34 72.87 73.46 74.11 74.73 75.03 74.91 74.73
72.37 73.63 74.16 75.65 76.35 77.03 80.33 74.86 74.12 73.37 73.72 73.78 73.62 73.97 73.55 73.69 72.71 74.00 73.64 72.54 72.50 72.43 71.46 71.97 71.28 72.29 72.06 71.33 71.01 70.71 69.52 69.27 69.61 68.69 67.89 73.65 72.95 73.01 74.22 75.16 75.68 75.88 75.86
71.03 72.90 75.07 75.77 77.51 77.78 78.42 80.66 77.66 78.06 76.32 75.85 75.25 74.71 74.48 75.43 76.28 75.16 75.76 75.15 75.10 75.35 73.59 72.27 72.44 73.00 72.86 72.88 72.86 73.17 72.74 72.37 72.26 71.21 69.32 70.46 72.73 73.14 73.85 74.71 75.47 76.08 76.46
70.60 69.88 73.75 76.68 77.94 77.91 78.14 79.37 79.09 77.47 76.41 77.38 76.21 78.34 75.76 76.36 77.02 77.99 76.06 75.49 75.40 75.71 76.68 75.68 75.27 74.99 74.74 73.70 72.67 72.62 71.85 72.16 73.30 73.30 72.78 71.07 71.33 72.77 73.41 74.21 75.00 75.41 76.11
65.55 70.38 75.32 75.55 77.63 78.33 78.78 78.56 78.49 77.46 78.78 77.03 77.81 76.74 77.13 76.98 76.41 77.45 76.42 74.86 74.27 74.84 75.03 74.68 74.09 73.55 73.09 72.96 72.45 72.58 72.73 72.62 72.16 71.68 73.22 72.37 71.68 71.84 72.40 73.76 74.31 74.93 75.41
66.38 71.16 75.58 75.90 76.46 78.06 78.86 78.52 78.64 79.29 78.38 78.32 77.52 77.52 76.27 76.93 77.13 76.32 75.19 74.80 76.83 76.33 76.23 74.23 73.71 73.78 72.83 73.48 72.81 72.00 72.17 71.26 70.25 66.40 71.55 72.71 72.57 71.63 71.50 72.96 72.97 73.82 74.37
70.52 72.70 72.38 75.86 75.67 78.35 78.11 77.99 77.64 77.09 77.09 77.79 76.61 76.12 76.71 76.23 76.44 76.40 75.08 74.18 75.21 75.13 74.72 74.08 73.29 74.48 74.22 73.24 72.33 70.92 70.99 71.45 72.16 71.29 72.19 73.69 72.48 72.18 72.56 72.36 72.04 71.88 72.91
68.98 69.71 72.61 73.85 75.80 77.44 75.87 75.36 74.96 74.22 75.70 75.51 76.29 78.15 75.84 75.57 76.23 76.04 75.45 74.44 75.53 73.15 74.63 74.99 74.79 74.08 72.23 72.49 71.06 69.69 70.19 71.60 71.53 70.96 70.82 70.71 70.98 71.95 72.40 72.24 72.80 72.25 72.45
68.49 70.23 72.32 72.68 74.89 77.38 76.27 76.02 75.95 74.94 73.89 74.86 75.19 76.03 77.02 74.76 74.68 74.58 73.27 72.68 73.35 73.65 74.85 74.85 74.17 72.24 71.95 72.52 68.13 68.01 63.40 65.02 67.72 69.23 68.92 70.64 67.77 70.66 70.51 70.98 71.79 73.68 73.05
68.11 69.18 70.58 73.21 74.29 75.07 76.96 76.98 77.69 76.99 76.79 75.71 75.39 76.26 75.27 74.48 74.52 74.15 73.83 73.44 74.11 74.21 73.14 74.06 74.46 72.42 70.28 70.00 69.69 66.91 62.53 60.27 63.99 66.47 66.93 67.66 68.01 67.34 68.29 70.15 71.33 72.01 72.97
68.38 69.42 69.51 70.20 73.88 72.87 76.96 75.25 76.94 73.68 71.33 73.80 73.35 74.83 75.13 75.96 75.76 76.25 74.66 74.86 74.16 75.03 73.55 73.16 73.60 72.50 70.62 67.33 68.32 68.47 68.15 67.40 62.16 60.13 64.90 66.39 66.45 66.51 67.42 68.28 69.38 71.01 71.57
69.33 69.84 70.81 72.29 73.41 74.90 76.89 77.19 74.99 74.42 74.54 74.85 73.87 77.41 75.85 76.44 76.70 74.88 75.09 73.98 75.11 74.50 72.76 72.13 71.29 71.41 70.29 68.91 66.49 65.00 64.51 64.75 64.65 63.09 60.12 61.66 65.47 66.26 67.53 66.23 65.49 67.26 69.57
68.45 69.49 70.57 71.29 72.35 73.09 73.14 74.35 74.19 73.79 73.51 73.26 72.47 71.85 73.55 74.57 74.31 73.90 73.11 73.54 73.04 72.63 71.35 71.13 70.72 69.71 69.09 68.36 67.18 65.66 62.61 60.17 58.86 59.35 57.96 58.52 58.70 60.63 63.90 66.27 65.40 65.76 67.02
MSLP
1006.87 1007.89 1008.56 1008.85 1009.32 1009.81 1010.18 1010.56 1010.95 1011.36 1011.75 1012.06 1012.32 1012.59 1012.92 1013.13 1013.30 1013.46 1013.82 1014.04 1014.18 1014.36 1014.55 1014.76 1014.94 1015.05 1015.10 1015.14 1015.18 1015.21 1015.28 1015.29 1015.29 1015.33 1015.46 1015.51 1015.46 1015.52 1015.65 1015.77 1015.58 1015.93 1016.24
1006.60 1007.82 1008.43 1008.94 1009.37 1009.95 1010.41 1010.75 1011.04 1011.46 1011.93 1012.26 1012.54 1012.84 1013.17 1013.39 1013.65 1013.91 1014.21 1014.29 1014.43 1014.60 1014.79 1014.95 1015.10 1015.22 1015.28 1015.36 1015.44 1015.52 1015.52 1015.46 1015.43 1015.52 1015.53 1015.55 1015.53 1015.30 1015.50 1015.67 1015.83 1016.11 1016.12
1006.48 1007.78 1008.48 1008.96 1009.47 1009.93 1010.45 1010.91 1011.29 1011.61 1012.02 1012.41 1012.77 1013.01 1013.37 1013.57 1013.86 1014.24 1014.47 1014.52 1014.60 1014.77 1014.94 1015.12 1015.28 1015.37 1015.44 1015.51 1015.61 1015.67 1015.63 1015.56 1015.43 1015.42 1015.54 1015.52 1015.61 1015.49 1015.49 1015.83 1015.94 1016.20 1016.27
1006.75 1007.74 1008.48 1009.11 1009.48 1010.02 1010.48 1010.93 1011.34 1011.83 1012.17 1012.49 1012.85 1013.22 1013.46 1013.69 1014.04 1014.34 1014.60 1014.71 1014.75 1014.95 1015.17 1015.36 1015.50 1015.59 1015.64 1015.73 1015.78 1015.79 1015.76 1015.64 1015.40 1015.22 1015.20 1014.96 1015.28 1015.78 1015.77 1015.82 1016.02 1016.09 1016.17
1007.10 1007.64 1008.64 1009.12 1009.52 1010.02 1010.50 1010.96 1011.44 1011.95 1012.41 1012.66 1012.97 1013.23 1013.49 1013.79 1014.21 1014.42 1014.66 1014.77 1014.81 1015.01 1015.28 1015.49 1015.60 1015.65 1015.72 1015.77 1015.80 1015.90 1015.89 1015.71 1015.44 1015.28 1014.84 1014.62 1015.01 1015.65 1015.82 1015.85 1015.93 1016.06 1016.23
1006.66 1007.62 1009.00 1009.23 1009.61 1010.11 1010.51 1011.01 1011.40 1011.93 1012.46 1012.73 1013.03 1013.29 1013.52 1013.84 1014.20 1014.37 1014.61 1014.72 1014.83 1015.12 1015.31 1015.44 1015.57 1015.67 1015.74 1015.83 1015.87 1015.87 1015.91 1015.76 1015.56 1014.99 1014.26 1014.39 1014.91 1015.45 1015.64 1015.77 1015.93 1016.05 1016.26
1006.19 1007.79 1008.88 1009.29 1009.70 1010.23 1010.59 1011.06 1011.41 1011.77 1012.32 1012.75 1013.02 1013.29 1013.58 1013.90 1014.20 1014.33 1014.55 1014.69 1014.85 1015.11 1015.25 1015.41 1015.61 1015.67 1015.67 1015.75 1015.88 1015.88 1015.76 1015.86 1015.74 1015.03 1014.25 1014.17 1014.97 1015.23 1015.47 1015.73 1015.96 1016.05 1016.17
1006.19 1007.80 1008.90 1009.42 1009.86 1010.40 1010.77 1011.13 1011.46 1011.77 1012.29 1012.76 1013.03 1013.30 1013.65 1013.93 1014.18 1014.32 1014.54 1014.74 1014.89 1015.05 1015.25 1015.46 1015.58 1015.63 1015.69 1015.82 1015.87 1015.84 1015.92 1015.87 1015.48 1015.00 1014.48 1014.29 1014.78 1015.01 1015.23 1015.51 1015.80 1015.97 1016.16
1006.04 1007.51 1008.63 1009.31 1009.86 1010.43 1010.87 1011.32 1011.60 1011.89 1012.28 1012.69 1013.11 1013.31 1013.64 1013.95 1014.19 1014.37 1014.62 1014.81 1014.96 1015.08 1015.26 1015.40 1015.46 1015.54 1015.75 1015.76 1015.80 1015.79 1015.73 1015.63 1015.55 1015.16 1014.51 1014.04 1014.66 1014.87 1015.10 1015.38 1015.58 1015.72 1015.88
1005.59 1007.31 1008.37 1008.98 1009.48 1010.15 1010.76 1011.27 1011.64 1011.98 1012.35 1012.75 1013.09 1013.32 1013.62 1013.93 1014.19 1014.44 1014.71 1014.86 1014.97 1015.13 1015.20 1015.28 1015.36 1015.40 1015.49 1015.46 1015.55 1015.56 1015.48 1015.49 1015.41 1014.84 1014.04 1014.04 1014.22 1014.55 1014.85 1015.15 1015.47 1015.53 1015.70
1004.98 1006.72 1007.67 1008.51 1008.87 1009.27 1010.02 1011.07 1011.61 1011.96 1012.33 1012.71 1012.95 1013.30 1013.65 1013.80 1014.10 1014.26 1014.43 1014.49 1014.76 1014.92 1015.02 1015.09 1015.21 1015.26 1015.36 1015.35 1015.20 1015.13 1015.24 1015.04 1014.36 1014.07 1013.92 1013.92 1014.17 1014.36 1014.67 1014.94 1015.06 1015.15 1015.27
1004.33 1005.57 1006.61 1007.43 1008.15 1008.44 1009.01 1010.29 1011.18 1011.62 1011.97 1012.29 1012.56 1013.01 1013.28 1013.29 1013.37 1013.39 1013.59 1014.02 1014.37 1014.59 1014.69 1014.83 1014.94 1015.05 1015.21 1014.93 1014.30 1014.65 1014.66 1014.32 1013.80 1013.24 1013.02 1013.42 1013.66 1013.91 1014.28 1014.49 1014.78 1014.91 1015.01
1003.35 1004.28 1005.44 1006.45 1007.28 1007.67 1008.12 1009.65 1010.48 1010.95 1011.48 1011.86 1012.13 1012.50 1012.91 1012.72 1012.68 1012.82 1013.02 1013.64 1014.00 1014.19 1014.27 1014.39 1014.57 1014.73 1014.46 1014.05 1013.57 1013.66 1013.84 1013.46 1013.11 1012.69 1012.90 1013.28 1013.34 1013.55 1014.01 1014.25 1014.25 1014.44 1014.55
1002.61 1003.87 1005.10 1006.32 1006.98 1007.09 1007.49 1008.72 1009.46 1010.10 1010.60 1011.10 1011.59 1011.96 1012.41 1012.56 1012.35 1012.14 1012.38 1012.87 1013.16 1013.19 1013.63 1013.60 1013.69 1013.51 1013.55 1013.30 1012.97 1012.93 1012.96 1012.77 1012.84 1012.87 1012.88 1013.08 1013.20 1013.27 1013.51 1013.79 1013.94 1013.88 1013.81
1002.73 1003.61 1004.77 1006.02 1006.95 1007.35 1007.42 1007.73 1008.56 1009.14 1009.81 1009.99 1010.59 1011.16 1011.66 1011.94 1012.07 1011.76 1011.99 1012.07 1012.38 1012.37 1012.67 1012.73 1012.66 1012.58 1012.75 1012.63 1012.76 1012.75 1012.69 1012.82 1012.87 1012.82 1012.92 1013.08 1013.10 1012.95 1012.91 1013.31 1013.54 1013.58 1013.46
1004.80 1005.01 1004.91 1005.50 1006.60 1007.37 1007.74 1007.54 1007.79 1008.37 1008.61 1009.11 1009.67 1010.22 1010.74 1011.15 1011.45 1011.64 1011.72 1011.90 1011.71 1011.66 1011.62 1011.84 1011.92 1012.08 1012.27 1012.38 1012.57 1012.24 1012.32 1012.36 1012.37 1012.52 1012.47 1012.43 1012.64 1012.78 1012.49 1012.66 1012.80 1013.20 1013.16
1007.00 1007.85 1007.57 1005.95 1006.76 1007.27 1007.99 1007.55 1007.72 1007.93 1008.15 1008.75 1008.98 1009.39 1010.12 1010.54 1010.87 1011.14 1011.31 1011.44 1011.39 1011.34 1011.30 1011.25 1011.47 1011.61 1012.02 1012.21 1012.28 1012.01 1011.93 1011.92 1011.94 1011.91 1011.94 1011.90 1012.03 1012.19 1012.07 1012.02 1012.12 1012.50 1012.73
1007.51 1008.39 1003.72 1005.07 1006.25 1007.06 1007.66 1007.60 1007.64 1007.87 1008.19 1008.56 1008.62 1008.93 1009.43 1010.00 1010.34 1010.70 1010.93 1011.01 1010.85 1010.85 1011.15 1011.38 1011.49 1011.62 1011.92 1011.93 1011.80 1011.52 1011.52 1011.63 1011.50 1011.65 1011.56 1011.37 1011.17 1011.22 1011.59 1011.78 1011.80 1011.98 1012.26
1005.24 1005.23 1005.01 1004.62 1005.36 1006.48 1006.61 1006.92 1007.33 1007.68 1008.05 1008.18 1008.37 1008.57 1008.77 1009.09 1009.55 1010.20 1010.66 1010.67 1010.62 1010.92 1011.03 1011.05 1011.19 1011.36 1011.55 1011.70 1011.44 1011.03 1011.33 1012.06 1011.57 1011.53 1011.28 1010.60 1010.86 1010.85 1010.92 1011.09 1011.39 1011.62 1011.79
1003.81 1004.01 1004.30 1004.87 1005.11 1005.59 1005.97 1006.35 1006.89 1007.42 1007.81 1007.93 1008.26 1008.28 1008.19 1008.77 1009.07 1009.89 1010.81 1010.78 1010.85 1010.81 1010.99 1010.72 1011.01 1010.89 1011.28 1011.59 1011.30 1011.23 1010.96 1011.20 1011.44 1011.20 1010.51 1010.22 1010.55 1010.75 1010.60 1010.52 1010.54 1010.79 1011.10
1004.46 1004.72 1004.83 1004.94 1005.22 1005.11 1005.47 1006.17 1006.67 1007.16 1007.36 1007.55 1007.73 1007.75 1007.71 1008.03 1008.29 1008.72 1010.27 1011.35 1010.61 1011.07 1010.47 1010.55 1010.72 1010.80 1011.06 1011.24 1011.50 1011.31 1010.95 1010.66 1010.71 1010.45 1009.97 1010.46 1011.00 1010.74 1010.44 1010.39 1009.89 1009.92 1010.32
1004.82 1004.82 1004.90 1005.07 1005.21 1005.32 1005.49 1005.86 1006.17 1006.65 1006.73 1006.89 1007.14 1007.18 1007.40 1008.09 1009.82 1009.62 1010.22 1010.65 1011.26 1010.40 1010.03 1010.14 1010.58 1010.93 1011.17 1011.23 1011.65 1011.37 1011.28 1010.97 1010.40 1010.22 1009.86 1010.14 1011.67 1012.63 1010.79 1009.87 1009.22 1009.21 1009.71
1005.22 1005.32 1005.39 1005.57 1005.60 1005.82 1005.89 1006.07 1006.28 1006.54 1006.67 1006.57 1006.60 1006.95 1007.19 1008.01 1009.35 1009.49 1010.19 1010.45 1009.98 1009.89 1009.72 1010.08 1010.35 1010.79 1011.14 1011.18 1011.40 1011.62 1011.29 1011.03 1010.82 1010.21 1009.82 1009.63 1010.62 1011.03 1010.70 1009.71 1008.93 1009.00 1009.19
1005.98 1005.80 1005.92 1006.06 1005.99 1006.20 1006.27 1006.36 1006.52 1006.70 1006.94 1006.63 1006.57 1006.23 1006.65 1007.06 1007.43 1008.24 1009.21 1009.33 1009.58 1009.64 1009.30 1009.60 1010.00 1010.27 1010.85 1011.29 1011.22 1010.85 1010.95 1010.92 1010.93 1010.77 1010.36 1009.99 1009.78 1009.52 1009.28 1009.23 1009.28 1009.03 1008.73
1006.56 1006.68 1006.90 1006.76 1006.72 1006.51 1006.39 1006.65 1006.93 1007.08 1006.79 1006.64 1006.62 1006.40 1006.59 1007.16 1007.70 1007.93 1008.41 1009.07 1009.12 1009.46 1009.46 1009.43 1009.71 1010.08 1010.28 1010.79 1010.85 1010.96 1010.90 1010.81 1010.70 1010.88 1010.81 1010.28 1009.99 1009.49 1009.20 1009.18 1009.19 1009.25 1008.92
1007.08 1007.49 1007.63 1007.62 1007.62 1007.29 1007.18 1007.27 1007.56 1007.75 1007.72 1007.38 1007.27 1007.45 1007.57 1007.90 1008.22 1008.40 1008.45 1008.59 1009.00 1009.35 1009.56 1009.65 1009.76 1010.06 1010.13 1010.35 1010.64 1010.86 1011.08 1011.18 1011.01 1010.94 1010.89 1010.69 1010.32 1009.95 1009.53 1009.35 1009.12 1009.06 1008.70
Wind_Speed
17 17 16 16 15 12 13 14 14 13 13 12 12 12 10 10 11 13 12 11 11 10 10 9 8 7 7 9 10 10 11 9 7 7 8 8 9 9 9 12 15 11 11
21 17 18 16 15 13 12 13 14 15 13 12 12 12 11 11 10 11 10 10 10 10 10 8 7 7 7 8 9 9 8 6 4 3 2 5 6 11 9 9 11 8 9
20 17 17 17 16 15 14 14 14 15 14 13 12 12 11 11 11 10 9 9 10 10 8 7 6 6 6 7 8 8 6 5 7 6 5 6 6 9 11 8 8 7 7
18 14 16 17 17 16 15 15 15 14 14 14 13 12 11 11 10 10 8 9 9 8 7 6 6 6 5 6 6 5 3 4 8 10 6 7 9 8 8 8 6 5 3
16 15 15 17 16 16 15 15 15 14 13 14 13 13 12 11 10 9 9 8 8 7 6 6 6 5 5 5 4 3 1 5 10 12 9 4 6 8 7 7 5 5 3
19 18 16 17 16 15 15 15 16 16 14 14 14 13 12 12 11 10 9 8 8 6 6 6 6 5 4 3 2 1 2 5 10 11 5 6 8 11 8 5 5 5 3
18 17 16 16 16 15 15 15 15 16 15 14 13 13 12 11 11 10 9 8 7 6 6 6 5 5 4 3 3 3 4 6 7 10 7 2 9 11 9 6 4 3 3
20 16 15 16 16 15 14 14 14 15 14 13 13 12 11 11 10 10 9 8 7 7 6 5 5 5 5 4 4 5 5 7 8 8 8 1 10 11 9 7 6 5 5
20 17 13 14 14 14 14 13 13 13 14 13 12 12 11 11 10 9 8 7 7 6 6 6 6 6 5 6 7 7 7 8 6 7 11 3 11 9 8 7 7 7 7
19 18 15 13 14 12 11 13 12 12 12 11 11 11 11 10 9 9 7 7 7 7 7 7 7 7 7 8 9 9 9 10 8 9 9 5 13 10 8 7 7 9 10
17 16 16 16 13 13 13 11 12 13 12 11 10 10 9 7 8 10 10 11 11 9 9 8 8 8 8 9 12 13 11 5 10 8 3 13 11 9 7 7 9 10 11
20 19 17 16 15 14 12 13 10 10 8 8 8 9 7 8 9 11 13 14 13 11 10 10 10 9 8 6 7 13 6 9 9 6 3 14 12 9 8 9 9 10 11
17 14 18 15 14 14 12 10 6 6 6 6 8 9 8 7 6 7 4 6 6 10 6 9 8 6 9 8 7 7 9 9 7 3 8 13 12 11 9 10 11 11 11
18 16 17 16 12 9 10 10 10 8 8 7 8 9 7 5 5 5 5 8 8 6 8 6 6 9 11 9 6 4 5 5 3 3 4 11 12 12 12 11 13 13 12
15 16 17 14 9 6 3 9 10 9 9 10 10 10 7 6 5 5 4 4 7 7 8 8 7 5 7 5 5 6 7 6 5 3 2 12 12 14 14 13 14 14 14
14 14 15 14 11 7 5 2 4 5 7 7 8 11 13 7 5 5 5 4 4 4 5 7 6 5 5 5 6 8 7 5 5 5 4 5 13 12 14 15 15 15 15
12 16 23 12 13 9 7 4 3 5 4 4 5 7 13 9 6 5 4 5 5 5 6 3 3 2 1 3 6 7 6 7 5 7 6 5 6 16 14 15 15 14 15
5 27 19 13 16 13 9 7 4 4 3 5 3 5 12 12 9 5 4 3 4 3 4 4 4 4 4 5 7 7 5 6 4 5 6 7 5 4 12 14 12 14 14
22 5 4 5 12 16 11 7 7 6 5 4 6 4 8 9 10 6 4 5 4 3 3 4 4 5 4 3 5 4 3 3 7 7 12 6 6 6 4 10 15 12 13
2 5 4 2 5 10 9 7 4 6 6 6 6 5 7 9 10 7 5 4 5 4 5 4 5 2 1 4 5 5 4 3 7 10 6 6 6 6 5 7 5 8 14
7 5 4 2 3 1 4 7 6 5 5 6 6 7 8 10 10 10 5 6 5 10 6 3 2 1 2 3 3 5 5 5 5 7 7 4 3 7 6 8 5 4 5
6 5 2 3 3 3 2 2 2 5 6 6 7 7 7 8 7 8 8 3 16 9 7 4 3 1 3 3 4 3 3 6 4 3 3 3 6 17 7 7 5 5 5
5 5 5 3 3 5 5 3 3 2 4 2 4 4 6 14 19 12 12 12 10 9 5 5 5 6 4 3 4 3 2 3 3 5 6 5 1 3 5 6 5 3 6
4 6 5 4 3 5 5 4 4 4 6 4 7 7 9 9 8 7 9 8 7 5 5 5 5 4 5 4 4 4 5 4 3 6 3 5 6 7 5 4 5 6 5
8 8 6 7 7 4 4 3 5 6 4 3 6 5 6 4 2 5 5 7 5 4 4 4 3 5 4 4 3 2 3 3 3 2 6 6 4 5 4 2 4 3 7
9 8 7 7 6 6 5 3 3 6 7 6 5 2 3 2 4 5 6 6 6 3 3 2 3 2 2 2 2 2 2 3 3 3 3 4 6 5 3 4 3 4 5
Wind_Direction
127 131 125 123 122 127 135 134 128 124 123 121 119 115 111 106 106 106 106 102 99 96 89 96 82 76 74 69 68 66 62 60 62 73 84 91 98 83 62 45 32 68 60
132 138 131 125 125 128 135 137 133 130 130 129 126 124 122 113 107 107 110 108 104 98 94 96 95 90 85 79 73 67 59 38 13 29 86 136 132 114 90 75 64 72 67
135 135 136 128 127 130 137 138 134 133 136 136 132 130 127 119 118 115 115 111 106 102 105 107 106 105 100 92 83 73 57 8 330 308 281 255 152 123 108 88 82 74 69
131 146 138 132 129 133 138 137 135 137 140 139 137 135 133 123 128 129 121 111 108 108 110 115 115 111 106 93 90 81 55 331 305 305 288 254 140 116 112 106 91 91 93
139 145 134 132 129 131 136 136 135 137 144 142 142 141 136 130 133 133 129 123 119 122 126 132 136 134 119 111 108 94 43 305 304 306 289 79 132 136 135 130 152 134 79
147 133 139 132 131 133 137 139 140 142 147 147 148 144 142 141 142 139 139 137 132 133 147 156 156 148 137 139 146 177 252 287 307 288 262 102 85 148 148 146 125 124 134
140 131 145 136 135 138 141 142 146 147 150 152 150 149 150 148 149 149 152 151 145 160 172 171 170 168 180 191 208 238 256 288 294 300 302 94 127 153 153 164 171 180 185
121 141 145 138 139 143 146 149 150 148 151 153 154 154 154 154 160 161 162 161 164 179 188 180 185 194 207 224 237 249 275 288 297 286 283 230 147 152 156 179 194 207 224
129 137 149 152 145 144 147 150 150 150 155 156 156 155 158 162 169 171 171 170 180 193 196 198 200 209 222 231 248 252 252 257 268 283 290 148 151 149 162 186 204 217 225
135 143 151 154 159 160 157 155 154 155 156 154 157 161 164 168 175 180 176 186 195 204 209 213 212 220 230 230 236 242 245 254 257 256 257 146 153 156 175 191 208 222 226
140 149 156 162 163 169 160 164 158 163 159 157 163 170 164 189 182 187 200 192 197 205 216 221 223 226 236 246 243 230 234 239 240 231 245 149 158 158 184 216 218 222 221
149 159 159 164 164 174 164 151 176 174 180 183 181 174 200 215 181 202 199 189 190 203 218 224 227 230 236 250 242 221 223 235 247 242 175 166 160 161 194 217 236 240 226
161 162 158 160 163 175 158 150 173 172 185 186 192 175 203 215 226 199 147 172 184 206 217 212 220 223 227 229 248 184 217 234 236 256 135 164 164 173 200 227 230 234 232
163 164 151 149 163 189 145 157 170 184 181 182 195 184 190 224 249 197 175 191 195 194 204 232 211 214 218 233 249 282 286 303 303 296 147 172 182 183 198 222 236 235 226
159 153 150 148 159 195 197 166 168 189 178 185 179 183 194 206 236 193 236 228 177 206 194 215 210 210 211 214 243 244 241 243 260 289 285 190 198 201 198 214 234 237 235
356 345 135 150 154 178 210 178 158 172 180 179 176 182 189 198 217 232 198 234 263 260 208 202 207 208 209 227 250 236 235 229 243 256 251 225 210 209 207 211 223 237 241
25 76 275 159 160 175 199 213 208 179 225 191 194 179 183 195 221 232 219 198 215 231 265 295 335 325 295 299 278 257 253 245 238 230 231 237 208 218 217 218 218 228 238
43 226 187 173 165 172 178 183 205 233 209 206 221 198 175 185 199 223 232 253 242 228 227 208 223 219 237 233 236 238 227 213 239 282 243 230 219 258 217 230 219 224 233
190 186 179 170 168 173 174 178 186 210 213 238 209 206 181 187 185 182 232 227 225 220 250 219 218 203 239 275 285 287 297 23 117 236 263 253 228 225 234 192 217 231 232
218 158 142 359 200 159 167 171 195 200 213 224 231 205 188 197 181 179 218 242 263 233 229 234 236 165 135 291 303 305 294 223 196 213 244 241 231 234 226 225 203 218 219
357 12 358 167 329 154 143 176 182 219 212 214 222 220 193 185 195 155 171 279 216 231 228 171 176 322 264 291 284 283 271 274 255 244 244 241 289 317 260 236 211 211 191
340 330 317 322 303 285 190 195 226 199 219 210 218 204 178 100 55 210 193 200 240 232 216 183 163 290 285 251 243 266 288 294 305 30 339 14 93 241 269 257 232 188 196
321 326 346 295 272 286 258 226 210 276 298 281 218 177 171 169 199 190 199 221 246 236 166 187 174 188 221 294 304 221 309 262 307 323 327 336 47 260 267 294 304 213 219
345 29 9 331 286 258 240 247 276 214 229 242 259 207 181 186 172 173 211 235 238 265 218 168 196 179 168 218 250 247 245 253 268 296 289 292 291 292 299 327 322 281 244
50 40 33 5 5 6 341 288 340 309 281 293 306 54 72 107 244 223 208 222 238 233 283 206 171 176 188 208 234 292 306 311 285 258 282 291 291 278 264 273 293 322 281
63 68 54 48 32 22 15 351 321 323 336 332 2 10 87 165 237 236 212 196 204 218 278 222 184 198 224 268 306 294 254 248 280 277 288 295 297 298 322 309 298 296 288